QPF
0.00 0.00 0.00 0.00 0.00 0.00 0.00 0.00 0.01 0.03 0.02 0.04 0.03 0.03 0.02 0.01 0.02 0.02 0.02 0.01 0.04 0.06 0.01 0.00 0.00 0.01 0.03 0.01 0.01 0.00 0.00 0.01 0.01 0.01 0.01 0.02 0.02 0.02 0.02 0.02 0.02 0.02 0.02 0.02
0.00 0.00 0.00 0.00 0.00 0.00 0.00 0.00 0.01 0.02 0.02 0.02 0.03 0.03 0.01 0.01 0.02 0.03 0.03 0.02 0.03 0.03 0.02 0.01 0.01 0.02 0.03 0.03 0.01 0.01 0.00 0.01 0.01 0.02 0.01 0.01 0.02 0.02 0.02 0.02 0.03 0.03 0.02 0.02
0.00 0.00 0.00 0.00 0.00 0.00 0.00 0.00 0.00 0.01 0.02 0.02 0.04 0.02 0.01 0.01 0.01 0.03 0.03 0.03 0.02 0.02 0.02 0.03 0.03 0.03 0.04 0.04 0.03 0.02 0.02 0.01 0.02 0.02 0.02 0.02 0.02 0.03 0.03 0.03 0.04 0.03 0.04 0.04
0.00 0.00 0.00 0.00 0.00 0.00 0.00 0.00 0.00 0.00 0.00 0.01 0.04 0.02 0.01 0.01 0.01 0.03 0.04 0.04 0.04 0.03 0.03 0.03 0.04 0.05 0.05 0.05 0.06 0.04 0.04 0.03 0.03 0.03 0.03 0.04 0.04 0.05 0.05 0.04 0.03 0.03 0.04 0.05
0.00 0.00 0.01 0.01 0.01 0.00 0.00 0.00 0.00 0.00 0.00 0.01 0.01 0.02 0.01 0.01 0.01 0.03 0.04 0.04 0.05 0.07 0.07 0.06 0.06 0.06 0.06 0.06 0.06 0.05 0.05 0.04 0.04 0.04 0.04 0.04 0.04 0.04 0.04 0.03 0.04 0.04 0.04 0.04
0.00 0.00 0.01 0.03 0.03 0.01 0.01 0.01 0.00 0.00 0.00 0.01 0.02 0.04 0.03 0.01 0.01 0.03 0.04 0.05 0.04 0.04 0.06 0.07 0.08 0.08 0.08 0.07 0.05 0.05 0.05 0.05 0.05 0.06 0.05 0.05 0.04 0.04 0.05 0.04 0.04 0.04 0.03 0.04
0.00 0.01 0.01 0.02 0.03 0.01 0.01 0.03 0.02 0.02 0.02 0.02 0.02 0.02 0.02 0.01 0.01 0.04 0.04 0.04 0.04 0.04 0.05 0.09 0.11 0.11 0.11 0.08 0.05 0.04 0.04 0.03 0.03 0.04 0.05 0.06 0.05 0.05 0.06 0.05 0.05 0.06 0.06 0.06
0.01 0.02 0.04 0.02 0.02 0.03 0.04 0.03 0.02 0.02 0.03 0.02 0.01 0.02 0.02 0.01 0.02 0.03 0.05 0.05 0.04 0.04 0.05 0.07 0.09 0.09 0.09 0.08 0.06 0.05 0.04 0.04 0.04 0.04 0.04 0.03 0.04 0.05 0.05 0.06 0.05 0.05 0.06 0.06
0.02 0.03 0.04 0.03 0.03 0.02 0.01 0.02 0.01 0.01 0.01 0.01 0.01 0.01 0.02 0.02 0.03 0.03 0.04 0.05 0.06 0.05 0.04 0.04 0.04 0.04 0.05 0.06 0.05 0.05 0.05 0.05 0.05 0.05 0.05 0.05 0.05 0.06 0.06 0.05 0.05 0.05 0.05 0.05
0.02 0.02 0.04 0.06 0.05 0.02 0.01 0.02 0.01 0.01 0.01 0.01 0.01 0.02 0.02 0.02 0.02 0.03 0.02 0.04 0.05 0.04 0.04 0.04 0.04 0.03 0.03 0.04 0.04 0.03 0.04 0.04 0.06 0.07 0.08 0.07 0.07 0.07 0.07 0.06 0.06 0.06 0.05 0.04
0.03 0.04 0.03 0.03 0.02 0.02 0.01 0.01 0.01 0.01 0.01 0.01 0.01 0.02 0.02 0.01 0.02 0.01 0.01 0.02 0.02 0.02 0.03 0.04 0.04 0.04 0.03 0.03 0.03 0.04 0.05 0.06 0.06 0.07 0.08 0.08 0.07 0.07 0.07 0.07 0.07 0.07 0.06 0.05
0.05 0.05 0.05 0.04 0.02 0.01 0.01 0.01 0.01 0.01 0.01 0.01 0.01 0.02 0.02 0.02 0.03 0.02 0.02 0.02 0.02 0.02 0.03 0.03 0.04 0.04 0.03 0.03 0.03 0.04 0.04 0.06 0.05 0.05 0.05 0.04 0.04 0.05 0.06 0.06 0.07 0.07 0.06 0.04
0.04 0.04 0.05 0.04 0.02 0.01 0.00 0.00 0.01 0.01 0.01 0.01 0.01 0.01 0.02 0.02 0.02 0.01 0.01 0.01 0.02 0.02 0.03 0.03 0.03 0.03 0.03 0.03 0.03 0.03 0.04 0.04 0.04 0.04 0.04 0.05 0.05 0.05 0.04 0.05 0.04 0.04 0.04 0.03
0.03 0.05 0.05 0.03 0.02 0.01 0.01 0.03 0.03 0.02 0.02 0.02 0.01 0.01 0.01 0.01 0.01 0.02 0.02 0.02 0.02 0.03 0.03 0.03 0.03 0.03 0.03 0.03 0.03 0.03 0.02 0.02 0.03 0.03 0.03 0.04 0.05 0.05 0.04 0.03 0.03 0.02 0.02 0.02
0.02 0.02 0.05 0.04 0.03 0.04 0.04 0.05 0.07 0.05 0.03 0.02 0.01 0.02 0.02 0.01 0.01 0.02 0.02 0.03 0.04 0.04 0.03 0.03 0.02 0.02 0.02 0.02 0.02 0.02 0.02 0.02 0.02 0.02 0.03 0.03 0.04 0.04 0.04 0.03 0.03 0.03 0.02 0.02
0.01 0.01 0.02 0.05 0.06 0.04 0.05 0.06 0.06 0.05 0.03 0.02 0.02 0.02 0.02 0.02 0.01 0.02 0.03 0.04 0.04 0.03 0.03 0.03 0.02 0.02 0.02 0.01 0.01 0.02 0.02 0.02 0.03 0.02 0.02 0.02 0.03 0.03 0.03 0.03 0.02 0.02 0.03 0.03
0.02 0.03 0.03 0.04 0.04 0.03 0.03 0.04 0.07 0.08 0.05 0.03 0.02 0.02 0.02 0.02 0.02 0.03 0.04 0.04 0.03 0.03 0.03 0.03 0.02 0.02 0.02 0.02 0.02 0.03 0.03 0.03 0.03 0.02 0.01 0.01 0.02 0.03 0.03 0.03 0.03 0.02 0.02 0.02
0.03 0.03 0.03 0.03 0.02 0.02 0.02 0.02 0.04 0.07 0.07 0.04 0.03 0.03 0.03 0.03 0.04 0.05 0.04 0.04 0.04 0.03 0.03 0.03 0.02 0.03 0.03 0.02 0.03 0.04 0.03 0.02 0.02 0.02 0.02 0.02 0.02 0.02 0.03 0.04 0.03 0.02 0.02 0.02
0.02 0.02 0.03 0.03 0.02 0.03 0.03 0.03 0.02 0.03 0.03 0.03 0.03 0.04 0.04 0.04 0.05 0.06 0.06 0.05 0.04 0.04 0.03 0.03 0.02 0.03 0.04 0.03 0.03 0.03 0.03 0.02 0.02 0.03 0.03 0.03 0.02 0.02 0.02 0.03 0.04 0.04 0.03 0.03
0.02 0.03 0.03 0.02 0.01 0.02 0.03 0.03 0.03 0.03 0.02 0.03 0.04 0.05 0.05 0.05 0.06 0.07 0.07 0.05 0.04 0.03 0.02 0.02 0.02 0.03 0.03 0.03 0.04 0.03 0.03 0.03 0.04 0.05 0.06 0.05 0.03 0.02 0.01 0.02 0.03 0.03 0.04 0.04
0.02 0.03 0.03 0.02 0.02 0.02 0.02 0.02 0.03 0.04 0.04 0.05 0.06 0.07 0.07 0.06 0.05 0.06 0.06 0.06 0.06 0.04 0.02 0.03 0.03 0.03 0.02 0.02 0.03 0.04 0.04 0.03 0.04 0.05 0.05 0.04 0.03 0.02 0.02 0.01 0.02 0.02 0.03 0.04
0.03 0.04 0.03 0.02 0.02 0.02 0.01 0.02 0.03 0.04 0.04 0.05 0.07 0.08 0.08 0.08 0.06 0.07 0.07 0.07 0.07 0.05 0.03 0.03 0.02 0.02 0.01 0.02 0.02 0.03 0.05 0.04 0.04 0.03 0.02 0.02 0.03 0.03 0.02 0.02 0.04 0.03 0.03 0.02
0.04 0.04 0.02 0.02 0.02 0.02 0.02 0.03 0.03 0.03 0.04 0.05 0.06 0.08 0.08 0.07 0.07 0.07 0.07 0.07 0.06 0.04 0.03 0.02 0.02 0.01 0.01 0.02 0.02 0.02 0.05 0.06 0.05 0.04 0.03 0.02 0.02 0.02 0.02 0.03 0.04 0.03 0.02 0.01
0.04 0.03 0.02 0.02 0.02 0.03 0.03 0.04 0.04 0.03 0.04 0.05 0.06 0.07 0.08 0.07 0.06 0.06 0.05 0.04 0.04 0.03 0.02 0.02 0.02 0.02 0.02 0.02 0.02 0.03 0.03 0.05 0.06 0.05 0.04 0.04 0.04 0.03 0.03 0.03 0.03 0.03 0.02 0.02
0.04 0.04 0.03 0.03 0.04 0.03 0.03 0.03 0.03 0.03 0.03 0.04 0.06 0.06 0.07 0.08 0.05 0.04 0.04 0.04 0.03 0.02 0.01 0.01 0.01 0.01 0.02 0.03 0.03 0.04 0.04 0.05 0.05 0.06 0.05 0.05 0.06 0.05 0.06 0.06 0.05 0.05 0.05 0.04
0.05 0.05 0.05 0.05 0.04 0.04 0.03 0.03 0.03 0.02 0.03 0.03 0.04 0.04 0.05 0.07 0.06 0.06 0.05 0.04 0.03 0.03 0.03 0.02 0.02 0.02 0.02 0.03 0.05 0.05 0.05 0.05 0.05 0.06 0.05 0.05 0.04 0.05 0.06 0.07 0.07 0.06 0.06 0.05
0.04 0.05 0.06 0.05 0.04 0.03 0.03 0.03 0.03 0.02 0.02 0.03 0.03 0.03 0.03 0.05 0.04 0.04 0.04 0.05 0.06 0.07 0.08 0.06 0.04 0.04 0.03 0.04 0.04 0.05 0.06 0.06 0.06 0.06 0.07 0.06 0.05 0.04 0.05 0.07 0.08 0.06 0.05 0.04
MSLP
1006.89 1007.08 1007.24 1007.35 1007.43 1007.49 1007.54 1007.59 1007.64 1007.71 1007.78 1007.87 1007.96 1008.05 1008.13 1008.17 1008.17 1008.11 1007.97 1007.76 1007.48 1007.14 1006.76 1006.39 1006.04 1005.74 1005.50 1005.33 1005.22 1005.16 1005.13 1005.11 1005.07 1005.01 1004.93 1004.84 1004.73 1004.64 1004.57 1004.54 1004.54 1004.59 1004.66 1004.76
1007.67 1007.93 1008.09 1008.15 1008.14 1008.07 1007.98 1007.90 1007.85 1007.85 1007.91 1008.02 1008.17 1008.34 1008.50 1008.61 1008.66 1008.63 1008.50 1008.28 1007.98 1007.63 1007.25 1006.88 1006.53 1006.22 1005.98 1005.78 1005.63 1005.51 1005.40 1005.29 1005.17 1005.03 1004.89 1004.75 1004.63 1004.54 1004.48 1004.47 1004.49 1004.54 1004.61 1004.68
1008.30 1008.62 1008.80 1008.84 1008.76 1008.59 1008.38 1008.19 1008.05 1007.99 1008.02 1008.14 1008.32 1008.54 1008.75 1008.92 1009.00 1008.99 1008.87 1008.65 1008.34 1007.98 1007.60 1007.23 1006.89 1006.59 1006.35 1006.14 1005.97 1005.80 1005.64 1005.46 1005.28 1005.08 1004.89 1004.73 1004.59 1004.50 1004.45 1004.45 1004.47 1004.52 1004.56 1004.59
1008.66 1009.03 1009.23 1009.25 1009.13 1008.89 1008.61 1008.34 1008.13 1008.03 1008.04 1008.16 1008.38 1008.63 1008.89 1009.10 1009.22 1009.23 1009.12 1008.90 1008.60 1008.24 1007.86 1007.49 1007.16 1006.88 1006.63 1006.42 1006.23 1006.04 1005.84 1005.62 1005.39 1005.15 1004.93 1004.73 1004.59 1004.49 1004.45 1004.44 1004.46 1004.49 1004.50 1004.49
1008.72 1009.10 1009.31 1009.32 1009.17 1008.90 1008.58 1008.27 1008.04 1007.92 1007.94 1008.08 1008.33 1008.63 1008.94 1009.19 1009.35 1009.39 1009.30 1009.10 1008.80 1008.45 1008.08 1007.73 1007.40 1007.12 1006.88 1006.66 1006.46 1006.24 1006.01 1005.76 1005.50 1005.23 1004.98 1004.77 1004.60 1004.50 1004.44 1004.43 1004.43 1004.44 1004.42 1004.37
1008.48 1008.84 1009.03 1009.03 1008.88 1008.61 1008.29 1007.99 1007.77 1007.68 1007.73 1007.92 1008.22 1008.58 1008.94 1009.24 1009.45 1009.52 1009.47 1009.29 1009.01 1008.67 1008.31 1007.96 1007.64 1007.36 1007.12 1006.90 1006.68 1006.44 1006.19 1005.91 1005.62 1005.33 1005.05 1004.81 1004.63 1004.50 1004.43 1004.40 1004.38 1004.36 1004.32 1004.25
1008.00 1008.30 1008.46 1008.46 1008.31 1008.07 1007.79 1007.55 1007.39 1007.36 1007.48 1007.73 1008.10 1008.52 1008.93 1009.29 1009.54 1009.66 1009.64 1009.49 1009.24 1008.92 1008.57 1008.23 1007.92 1007.63 1007.38 1007.15 1006.92 1006.67 1006.39 1006.09 1005.77 1005.45 1005.15 1004.88 1004.67 1004.51 1004.40 1004.34 1004.30 1004.26 1004.20 1004.11
1007.38 1007.61 1007.72 1007.72 1007.61 1007.43 1007.23 1007.07 1007.01 1007.07 1007.27 1007.61 1008.04 1008.52 1008.99 1009.39 1009.68 1009.84 1009.85 1009.72 1009.49 1009.20 1008.86 1008.53 1008.22 1007.94 1007.68 1007.44 1007.19 1006.93 1006.63 1006.31 1005.96 1005.61 1005.27 1004.97 1004.71 1004.50 1004.35 1004.24 1004.17 1004.10 1004.03 1003.94
1006.73 1006.88 1006.97 1006.98 1006.92 1006.83 1006.74 1006.70 1006.75 1006.92 1007.21 1007.62 1008.11 1008.63 1009.13 1009.56 1009.87 1010.05 1010.08 1009.98 1009.77 1009.49 1009.18 1008.86 1008.55 1008.27 1008.01 1007.76 1007.50 1007.22 1006.90 1006.55 1006.18 1005.79 1005.41 1005.06 1004.74 1004.48 1004.27 1004.10 1003.98 1003.88 1003.79 1003.71
1006.15 1006.24 1006.32 1006.37 1006.40 1006.41 1006.45 1006.54 1006.72 1006.99 1007.37 1007.83 1008.35 1008.89 1009.38 1009.80 1010.11 1010.28 1010.32 1010.23 1010.04 1009.78 1009.48 1009.18 1008.88 1008.61 1008.35 1008.09 1007.82 1007.52 1007.18 1006.81 1006.41 1005.98 1005.55 1005.13 1004.75 1004.42 1004.14 1003.91 1003.73 1003.59 1003.48 1003.39
1005.72 1005.79 1005.90 1006.01 1006.14 1006.28 1006.46 1006.68 1006.97 1007.33 1007.76 1008.25 1008.76 1009.27 1009.73 1010.11 1010.39 1010.53 1010.56 1010.46 1010.28 1010.04 1009.76 1009.48 1009.20 1008.93 1008.67 1008.41 1008.13 1007.81 1007.46 1007.06 1006.62 1006.15 1005.67 1005.19 1004.74 1004.33 1003.98 1003.67 1003.43 1003.24 1003.09 1002.99
1005.49 1005.59 1005.75 1005.96 1006.21 1006.48 1006.78 1007.11 1007.49 1007.91 1008.36 1008.83 1009.31 1009.75 1010.14 1010.45 1010.66 1010.77 1010.76 1010.67 1010.49 1010.27 1010.01 1009.75 1009.49 1009.23 1008.97 1008.70 1008.41 1008.07 1007.69 1007.26 1006.79 1006.28 1005.75 1005.22 1004.70 1004.22 1003.79 1003.42 1003.11 1002.86 1002.67 1002.54
1005.46 1005.63 1005.88 1006.20 1006.56 1006.95 1007.36 1007.78 1008.21 1008.65 1009.08 1009.51 1009.90 1010.26 1010.56 1010.78 1010.92 1010.97 1010.94 1010.83 1010.66 1010.46 1010.23 1009.99 1009.74 1009.49 1009.23 1008.95 1008.64 1008.29 1007.88 1007.42 1006.92 1006.37 1005.80 1005.22 1004.66 1004.12 1003.63 1003.20 1002.83 1002.52 1002.29 1002.12
1005.64 1005.90 1006.26 1006.69 1007.16 1007.64 1008.12 1008.59 1009.04 1009.45 1009.83 1010.18 1010.48 1010.73 1010.93 1011.06 1011.13 1011.13 1011.07 1010.96 1010.81 1010.63 1010.42 1010.20 1009.97 1009.73 1009.46 1009.16 1008.83 1008.45 1008.02 1007.53 1007.00 1006.43 1005.84 1005.24 1004.64 1004.07 1003.54 1003.06 1002.64 1002.29 1002.00 1001.79
1006.00 1006.37 1006.83 1007.35 1007.90 1008.44 1008.96 1009.43 1009.85 1010.22 1010.52 1010.77 1010.97 1011.12 1011.21 1011.27 1011.28 1011.25 1011.18 1011.08 1010.95 1010.79 1010.61 1010.41 1010.19 1009.94 1009.66 1009.34 1008.97 1008.56 1008.11 1007.60 1007.06 1006.48 1005.88 1005.27 1004.67 1004.09 1003.55 1003.04 1002.60 1002.20 1001.88 1001.61
1006.54 1007.00 1007.54 1008.12 1008.71 1009.27 1009.78 1010.22 1010.58 1010.87 1011.08 1011.23 1011.33 1011.38 1011.41 1011.40 1011.38 1011.34 1011.28 1011.20 1011.09 1010.96 1010.81 1010.62 1010.39 1010.13 1009.83 1009.48 1009.08 1008.64 1008.16 1007.65 1007.10 1006.53 1005.94 1005.35 1004.77 1004.21 1003.67 1003.16 1002.70 1002.28 1001.91 1001.59
1007.22 1007.75 1008.33 1008.93 1009.52 1010.05 1010.51 1010.89 1011.17 1011.37 1011.49 1011.54 1011.56 1011.55 1011.52 1011.49 1011.45 1011.42 1011.38 1011.33 1011.26 1011.15 1011.01 1010.83 1010.60 1010.31 1009.98 1009.59 1009.16 1008.69 1008.20 1007.67 1007.13 1006.59 1006.03 1005.48 1004.93 1004.40 1003.88 1003.38 1002.91 1002.47 1002.06 1001.69
1008.03 1008.58 1009.17 1009.74 1010.28 1010.75 1011.13 1011.41 1011.60 1011.71 1011.74 1011.73 1011.68 1011.63 1011.58 1011.55 1011.53 1011.52 1011.51 1011.49 1011.45 1011.37 1011.23 1011.04 1010.79 1010.48 1010.10 1009.68 1009.22 1008.73 1008.22 1007.70 1007.18 1006.66 1006.14 1005.63 1005.13 1004.63 1004.14 1003.65 1003.17 1002.71 1002.26 1001.83
1008.91 1009.45 1009.99 1010.51 1010.96 1011.33 1011.61 1011.80 1011.89 1011.91 1011.88 1011.81 1011.74 1011.67 1011.63 1011.62 1011.63 1011.65 1011.68 1011.69 1011.67 1011.60 1011.46 1011.25 1010.97 1010.62 1010.21 1009.75 1009.26 1008.75 1008.24 1007.73 1007.23 1006.74 1006.27 1005.80 1005.33 1004.86 1004.38 1003.89 1003.40 1002.89 1002.39 1001.89
1009.79 1010.29 1010.76 1011.18 1011.53 1011.80 1011.97 1012.06 1012.07 1012.03 1011.95 1011.86 1011.78 1011.72 1011.70 1011.72 1011.77 1011.83 1011.89 1011.92 1011.91 1011.83 1011.68 1011.45 1011.13 1010.75 1010.30 1009.81 1009.30 1008.78 1008.27 1007.77 1007.29 1006.84 1006.40 1005.96 1005.51 1005.05 1004.57 1004.06 1003.53 1002.97 1002.39 1001.81
1010.62 1011.03 1011.41 1011.73 1011.98 1012.14 1012.22 1012.23 1012.18 1012.09 1011.99 1011.90 1011.83 1011.80 1011.82 1011.88 1011.96 1012.05 1012.13 1012.17 1012.15 1012.06 1011.88 1011.62 1011.27 1010.85 1010.38 1009.87 1009.34 1008.82 1008.32 1007.84 1007.38 1006.95 1006.53 1006.11 1005.67 1005.20 1004.69 1004.14 1003.54 1002.91 1002.25 1001.57
1011.31 1011.64 1011.93 1012.15 1012.30 1012.37 1012.38 1012.33 1012.24 1012.13 1012.04 1011.96 1011.92 1011.93 1011.98 1012.07 1012.18 1012.29 1012.38 1012.41 1012.38 1012.27 1012.06 1011.77 1011.39 1010.95 1010.46 1009.93 1009.41 1008.90 1008.41 1007.94 1007.51 1007.09 1006.68 1006.26 1005.81 1005.31 1004.76 1004.15 1003.48 1002.76 1002.00 1001.23
1011.82 1012.07 1012.28 1012.42 1012.49 1012.50 1012.46 1012.38 1012.28 1012.18 1012.10 1012.06 1012.06 1012.10 1012.19 1012.30 1012.42 1012.54 1012.62 1012.64 1012.58 1012.44 1012.21 1011.89 1011.49 1011.04 1010.54 1010.03 1009.51 1009.02 1008.55 1008.10 1007.69 1007.28 1006.87 1006.44 1005.96 1005.43 1004.83 1004.15 1003.40 1002.60 1001.75 1000.89
1012.14 1012.34 1012.48 1012.57 1012.59 1012.57 1012.51 1012.43 1012.34 1012.26 1012.21 1012.19 1012.23 1012.30 1012.41 1012.53 1012.65 1012.76 1012.82 1012.82 1012.74 1012.57 1012.32 1011.98 1011.58 1011.13 1010.64 1010.15 1009.66 1009.19 1008.74 1008.33 1007.93 1007.53 1007.12 1006.67 1006.17 1005.60 1004.94 1004.21 1003.40 1002.52 1001.60 1000.67
1012.32 1012.48 1012.58 1012.64 1012.65 1012.62 1012.56 1012.49 1012.43 1012.38 1012.35 1012.37 1012.43 1012.51 1012.63 1012.75 1012.86 1012.94 1012.98 1012.95 1012.84 1012.65 1012.39 1012.05 1011.65 1011.21 1010.75 1010.29 1009.83 1009.40 1008.99 1008.60 1008.22 1007.83 1007.42 1006.96 1006.43 1005.83 1005.15 1004.37 1003.52 1002.60 1001.64 1000.66
1012.41 1012.55 1012.65 1012.70 1012.71 1012.69 1012.66 1012.61 1012.57 1012.55 1012.55 1012.58 1012.65 1012.74 1012.84 1012.94 1013.02 1013.08 1013.08 1013.02 1012.88 1012.68 1012.41 1012.08 1011.70 1011.29 1010.87 1010.44 1010.03 1009.64 1009.26 1008.90 1008.54 1008.16 1007.75 1007.29 1006.76 1006.14 1005.44 1004.65 1003.79 1002.86 1001.89 1000.91
1012.49 1012.63 1012.74 1012.80 1012.83 1012.84 1012.82 1012.80 1012.78 1012.78 1012.79 1012.83 1012.89 1012.96 1013.03 1013.10 1013.14 1013.15 1013.12 1013.03 1012.87 1012.66 1012.39 1012.08 1011.72 1011.35 1010.97 1010.59 1010.23 1009.87 1009.53 1009.20 1008.86 1008.49 1008.09 1007.63 1007.10 1006.49 1005.80 1005.02 1004.17 1003.27 1002.33 1001.38
Thickness
5800 5812 5815 5811 5813 5820 5819 5819 5809 5811 5811 5816 5821 5823 5826 5826 5825 5821 5816 5814 5811 5808 5806 5805 5803 5800 5798 5796 5794 5793 5789 5786 5783 5782 5780 5778 5776 5774 5773 5771 5770 5767 5765 5764
5786 5802 5807 5804 5810 5815 5816 5819 5814 5810 5808 5821 5823 5822 5818 5818 5815 5811 5807 5806 5805 5802 5799 5797 5795 5793 5791 5789 5789 5787 5783 5781 5779 5778 5775 5773 5772 5770 5768 5766 5765 5763 5761 5759
5767 5788 5792 5784 5805 5809 5811 5818 5814 5800 5801 5813 5809 5808 5808 5809 5807 5804 5802 5800 5796 5794 5793 5790 5788 5787 5784 5784 5784 5782 5779 5777 5775 5773 5770 5768 5768 5766 5763 5761 5759 5758 5756 5754
5760 5764 5747 5784 5817 5816 5810 5810 5812 5810 5808 5805 5802 5805 5806 5805 5800 5797 5796 5793 5790 5789 5788 5786 5785 5782 5781 5780 5778 5775 5773 5771 5769 5767 5765 5764 5762 5760 5758 5757 5755 5753 5751 5750
5749 5745 5754 5776 5795 5795 5785 5784 5799 5799 5799 5800 5801 5794 5789 5794 5796 5792 5790 5788 5785 5784 5782 5780 5778 5777 5774 5772 5769 5766 5764 5763 5763 5761 5759 5757 5755 5754 5753 5751 5749 5748 5747 5746
5742 5734 5733 5759 5784 5795 5783 5767 5788 5791 5788 5788 5785 5767 5765 5781 5785 5784 5782 5781 5779 5777 5775 5771 5770 5768 5764 5761 5759 5757 5757 5756 5756 5755 5753 5751 5750 5749 5748 5746 5744 5743 5742 5741
5733 5729 5738 5757 5773 5776 5747 5747 5773 5777 5775 5776 5769 5765 5768 5774 5774 5773 5772 5771 5770 5767 5764 5761 5761 5758 5753 5751 5749 5749 5750 5749 5748 5748 5747 5746 5745 5744 5741 5740 5738 5737 5736 5736
5725 5718 5721 5750 5753 5744 5742 5758 5762 5765 5766 5763 5762 5763 5764 5764 5763 5762 5759 5759 5759 5756 5754 5754 5752 5749 5744 5742 5743 5743 5742 5740 5739 5739 5739 5740 5738 5737 5736 5733 5731 5730 5729 5728
5721 5720 5735 5745 5742 5746 5750 5750 5752 5756 5758 5757 5754 5753 5753 5752 5752 5750 5749 5748 5749 5746 5744 5744 5744 5742 5736 5736 5737 5734 5732 5731 5730 5731 5731 5731 5731 5730 5729 5727 5725 5724 5723 5721
5714 5724 5730 5731 5733 5736 5740 5740 5746 5749 5749 5749 5745 5744 5742 5742 5741 5740 5740 5739 5739 5737 5734 5733 5733 5732 5731 5731 5730 5727 5724 5724 5724 5723 5723 5724 5724 5723 5722 5721 5720 5719 5717 5716
5702 5709 5716 5716 5720 5724 5729 5735 5736 5737 5738 5738 5736 5734 5733 5732 5732 5732 5732 5732 5730 5728 5726 5725 5725 5724 5724 5724 5722 5719 5717 5717 5717 5717 5717 5716 5716 5715 5715 5714 5713 5710 5710 5709
5688 5698 5697 5702 5713 5718 5718 5720 5724 5725 5723 5728 5728 5725 5724 5723 5723 5724 5723 5724 5722 5720 5719 5718 5717 5716 5716 5716 5713 5710 5709 5709 5710 5710 5710 5710 5709 5707 5706 5706 5704 5703 5702 5701
5688 5692 5694 5696 5704 5708 5709 5711 5714 5713 5712 5715 5717 5716 5714 5714 5716 5715 5715 5715 5714 5712 5711 5710 5709 5708 5708 5708 5705 5702 5701 5701 5702 5703 5703 5703 5703 5701 5699 5697 5696 5695 5694 5693
5683 5684 5682 5686 5691 5697 5699 5701 5703 5704 5703 5706 5707 5707 5706 5706 5707 5706 5706 5707 5707 5705 5704 5703 5702 5701 5701 5700 5697 5696 5695 5695 5695 5696 5696 5696 5697 5696 5695 5692 5690 5689 5688 5687
5673 5675 5675 5679 5683 5685 5688 5689 5688 5688 5690 5694 5696 5696 5696 5695 5696 5697 5699 5700 5698 5697 5696 5695 5694 5693 5694 5693 5690 5689 5688 5689 5690 5690 5690 5690 5690 5690 5689 5688 5687 5685 5684 5682
5666 5669 5670 5670 5671 5673 5675 5676 5674 5674 5678 5682 5685 5686 5687 5688 5689 5690 5691 5691 5689 5688 5688 5688 5686 5686 5686 5685 5683 5682 5681 5681 5681 5682 5683 5683 5683 5682 5682 5681 5680 5679 5678 5676
5655 5655 5656 5657 5659 5662 5664 5666 5665 5666 5668 5669 5674 5677 5679 5679 5680 5680 5681 5682 5682 5681 5681 5680 5679 5679 5678 5677 5675 5675 5675 5674 5673 5674 5675 5675 5675 5675 5675 5674 5673 5672 5673 5672
5652 5653 5654 5654 5653 5653 5655 5658 5659 5658 5660 5665 5668 5669 5670 5669 5669 5670 5672 5673 5673 5672 5672 5672 5671 5670 5670 5669 5667 5666 5666 5667 5667 5666 5667 5666 5667 5667 5667 5667 5667 5666 5665 5664
5647 5648 5650 5650 5650 5648 5650 5651 5652 5653 5654 5658 5659 5660 5662 5662 5663 5663 5664 5663 5662 5661 5662 5663 5660 5660 5660 5660 5657 5657 5657 5658 5659 5659 5659 5658 5658 5660 5660 5659 5659 5659 5659 5658
5642 5644 5645 5645 5645 5644 5644 5645 5646 5647 5648 5650 5651 5651 5652 5654 5655 5655 5654 5654 5654 5654 5654 5652 5652 5651 5651 5650 5648 5649 5650 5651 5651 5651 5651 5651 5652 5652 5653 5653 5653 5653 5652 5650
5635 5637 5637 5638 5637 5638 5638 5639 5639 5639 5641 5643 5643 5643 5644 5646 5648 5648 5646 5646 5646 5645 5645 5644 5643 5642 5642 5640 5640 5643 5643 5643 5643 5644 5644 5644 5645 5645 5645 5645 5646 5645 5644 5644
5629 5631 5631 5632 5631 5631 5632 5633 5633 5634 5635 5636 5636 5637 5637 5638 5640 5640 5640 5640 5639 5636 5637 5637 5635 5632 5632 5631 5635 5636 5636 5636 5636 5637 5637 5637 5637 5637 5637 5638 5638 5638 5638 5637
5622 5624 5625 5624 5624 5624 5625 5626 5627 5629 5629 5629 5629 5630 5630 5631 5632 5632 5631 5633 5633 5629 5629 5628 5625 5624 5622 5625 5627 5628 5629 5629 5629 5629 5629 5629 5629 5629 5630 5630 5631 5631 5630 5630
5616 5617 5618 5619 5618 5618 5617 5619 5622 5623 5624 5624 5625 5625 5625 5625 5625 5627 5626 5624 5623 5621 5623 5620 5618 5618 5616 5620 5620 5621 5621 5621 5621 5622 5622 5623 5623 5623 5623 5624 5624 5624 5623 5623
5612 5613 5614 5613 5613 5614 5615 5615 5616 5618 5619 5619 5620 5620 5621 5620 5619 5619 5619 5618 5616 5615 5617 5614 5613 5612 5613 5615 5615 5614 5614 5613 5614 5614 5615 5615 5616 5616 5616 5616 5616 5616 5615 5615
5609 5609 5609 5610 5610 5610 5611 5611 5611 5612 5613 5613 5613 5614 5614 5614 5613 5613 5612 5611 5611 5608 5610 5609 5608 5607 5608 5609 5609 5609 5608 5608 5607 5607 5607 5608 5608 5608 5608 5607 5607 5607 5606 5605
5606 5606 5605 5606 5607 5608 5608 5607 5607 5607 5608 5607 5606 5607 5608 5607 5606 5606 5606 5605 5605 5604 5603 5602 5602 5601 5601 5601 5601 5601 5601 5601 5600 5599 5599 5599 5600 5599 5599 5599 5598 5597 5596 5595